Location: Unspecified
(0.0000°N, 0.0000°E)
Time: 01:23:34
(UTC+00:00)

Quakesat - Pass Details

Date: 06 August 2021
Orbit: 810 x 824 km, 98.7° (Epoch: 24 September)

Event Time Altitude Azimuth Distance (km) Brightness Sun altitude
Rises 05:39:37 0° 22° (NNE) 3,342 ? -6.3°
Reaches altitude 10° 05:42:01 10° 27° (NNE) 2,411 ? -5.7°
Maximum altitude 05:47:12 52° 103° (ESE) 1,015 ? -4.5°
Drops below altitude 10° 05:52:23 10° 178° (S) 2,414 ? -3.2°
Sets 05:54:46 0° 183° (S) 3,346 ? -2.7°
